Weather in Molochnoye

Russia / Republic of Crimea     45°11′49″N   33°13′29″E
temp.,
°C
wind,
m/s
gust,
m/s
humid.,
%
clouds,
%
prec.,
mm/h
press.,
hPa
HPBL,
m
3 march, wed
wed300:00+5wsw8118116 0.0 1024520
03:00+6wnw7118148 0.0 1024620
06:00+3n6107757 0.0 1024805
09:00+4n7106976 0.0 1026979
12:00+7nnw68560 0.0 10271037
15:00+8nnw67520 0.0 10281128
18:00+7nw56570 0.0 1027744
21:00+5nw34710 0.0 1029167
4 march, thu
thu400:00+4wnw337242 0.0 1028115
03:00+4w237556 0.0 1028184
06:00+4wsw34730 0.0 1026263
09:00+6sw56660 0.0 1025767
12:00+8sw78630 0.0 1023846
15:00+8sw89670 0.0 1022773
18:00+7ssw810730 0.0 1020703
21:00+6ssw912750 0.0 1019591
5 march, fri
fri500:00+6ssw913790 0.0 1018564
03:00+6ssw912820 0.0 1017557
06:00+6ssw9128214 0.0 1015499
09:00+8ssw10137714 0.0 1015590
12:00+10ssw1014710 0.0 1013644
15:00+10ssw10137411 0.0 1012562
18:00+9ssw812824 0.0 1011500
21:00+8ssw710918 0.0 1012340
6 march, sat
sat600:00+8ssw57928 0.0 1013167
03:00+7ssw238814 0.0 101437
06:00+4nne8129251 0.0 1015303
09:00+5nne698375 0.0 1017482
12:00+3nne7991100 0.1 1018516
15:00+6n7856100 0.1 1019989
18:00+5n6846100 0.0 10211337
21:00+3n5849100 0.1 1024704
7 march, sun
sun700:00+1n595232 0.0 1026527
03:000n586216 0.0 1027389
06:00−1nne12510 0.0 1027221
09:00+2ssw22370 0.0 1028346
12:00+5w674190 0.0 10271847
15:00+5w784474 0.0 10251655
18:00+4w67490 0.0 10231348
21:00+3wsw58550 0.0 1022479